Weather in Sidorovskoye

Russia / Kostroma Oblast     57°27′03″N   41°13′05″E
temp.,
°C
wind,
m/s
gust,
m/s
humid.,
%
clouds,
%
prec.,
mm/h
press.,
hPa
HPBL,
m
19 january, tue
tue1900:00−18wsw229799 0.2 101944
03:00−19nw1197100 0.2 101920
06:00−18ssw2297100 0.1 101727
09:00−17sw2297100 0.3 101830
12:00−15w129392 0.1 1017184
15:00−14w129691 0.2 101697
18:00−16w129796 0.2 101620
21:00−16w229791 0.2 101620
20 january, wed
wed2000:00−15wnw239799 0.1 101549
03:00−15wnw339799 0.3 101667
06:00−14wnw349694 0.1 101598
09:00−16wnw349785 0.1 101650
12:00−12w469485 0.1 1016266
15:00−13w379692 0.1 1016222
18:00−16w369785 0.0 101797
21:00−17w359885 0.1 101887
21 january, thu
thu2100:00−16w3598100 0.1 101893
03:00−17wsw349791 0.1 101854
06:00−16ssw3594100 0.0 101792
09:00−14s4990100 0.0 1015225
12:00−12s61193100 0.1 1011362
15:00−10ssw51094100 2.9 1009682
18:00−10sw3896100 0.9 1007411
21:00−9sw2696100 1.8 1007254
22 january, fri
fri2200:00−8ssw1297100 0.7 100654
03:00−8ese2296100 1.3 100757
06:00−8e3596100 0.8 1007180
09:00−8ese4795100 1.6 1008226
12:00−6se469594 0.2 1008231
15:00−5ese359697 0.4 1009136
18:00−3se3498100 0.1 1009127
21:000sse4698100 0.1 1009210
23 january, sat
sat2300:000ssw5898100 0.6 1008344
03:00+1ssw5999100 1.4 1007350
06:000sw5998100 0.4 1007453
09:000s2599100 0.7 1007204
12:00+1ssw49100100 0.5 1007225
15:00+1ssw410100100 1.0 1007294
18:00+1ssw48100100 0.6 1008215
21:00+1sw4899100 0.9 1008263